IK3XJT Weather Reports


time (UTC)temp
C
wind
direction
speed
KPH
gust
KPH
rain 1hr
cm
rain 24hr
cm
rain mn
cm
humidity
%
barometer
mb
20260506215324 15 117 0.0 0.0 0.00 2.39 0.48 95 1008.9
20260506214824 15 117 0.0 0.0 0.00 2.39 0.48 95 1008.7
20260506214405 15 117 0.0 0.0 0.00 2.39 0.48 95 1008.7
20260506213836 15 117 0.0 0.0 0.00 2.39 0.48 94 1008.7
20260506213334 15 117 0.0 0.0 0.00 2.39 0.48 94 1008.9
20260506212845 15 117 0.0 0.0 0.00 2.39 0.48 94 1008.9
20260506211833 15 117 0.0 0.0 0.00 2.39 0.48 95 1008.9
20260506211334 15 117 0.0 0.0 0.00 2.39 0.48 94 1008.9
20260506210816 15 118 0.0 0.0 0.00 2.39 0.48 94 1008.9
20260506210319 15 121 0.0 0.0 0.00 2.39 0.48 94 1008.7
20260506205818 15 121 0.0 0.0 0.00 2.39 0.48 94 1008.7
20260506205356 15 121 0.0 0.0 0.00 2.39 0.48 94 1008.7
20260506204359 15 121 0.0 0.0 0.00 2.39 0.48 94 1008.8
20260506203853 15 121 0.0 0.0 0.00 2.39 0.48 94 1008.8
20260506203351 15 121 0.0 0.0 0.00 2.39 0.48 94 1008.8
20260506202910 15 121 0.0 0.0 0.00 2.39 0.48 94 1008.8
20260506202408 15 123 0.0 0.0 0.00 2.39 0.48 94 1008.8
20260506201826 15 123 0.0 0.0 0.00 2.39 0.48 94 1008.5
20260506201319 16 123 0.0 0.0 0.00 2.39 0.48 94 1008.5
20260506200826 16 123 0.0 0.0 0.00 2.39 0.48 94 1008.5
20260506200318 16 123 0.0 0.0 0.00 2.39 0.48 94 1008.5
20260506195827 16 123 0.0 0.0 0.00 2.39 0.48 94 1008.5
20260506195314 16 123 0.0 0.0 0.00 2.39 0.48 94 1008.5
20260506194817 16 123 0.0 0.0 0.00 2.39 0.48 94 1008.4
20260506194321 16 123 0.0 0.0 0.00 2.39 0.48 94 1008.4
20260506193927 16 123 0.0 0.0 0.00 2.39 0.48 93 1008.4
20260506193844 16 123 0.0 0.0 0.00 2.39 0.48 93 1008.4
20260506193334 16 123 0.0 0.0 0.00 2.39 0.48 94 1008.2
20260506192922 16 123 0.0 0.0 0.00 2.39 0.48 94 1008.2
20260506192329 16 123 0.0 0.0 0.00 2.39 0.48 93 1008.2
20260506191819 16 123 0.0 0.0 0.00 2.39 0.48 93 1008.1
20260506191323 16 126 0.0 0.0 0.00 2.39 0.48 93 1008.1
20260506190925 16 136 0.0 0.0 0.00 2.39 0.48 93 1008.1
20260506190402 16 137 0.0 0.0 0.00 2.39 0.48 93 1008.0
20260506185823 16 147 0.0 0.0 0.00 2.39 0.48 93 1008.0
20260506185331 16 153 0.0 0.0 0.00 2.39 0.48 93 1008.0
20260506184819 16 153 0.0 0.0 0.00 2.39 0.48 93 1008.0
20260506184323 16 153 0.0 0.0 0.00 2.39 0.48 93 1008.0
20260506183829 16 153 0.0 0.0 0.00 2.39 0.48 93 1008.0
20260506182858 16 153 0.0 0.0 0.00 2.39 0.48 92 1007.8
20260506182417 16 153 0.0 0.0 0.00 2.39 0.48 92 1007.8
20260506181855 17 153 0.0 0.0 0.00 2.39 0.48 92 1007.6
20260506181325 17 153 0.0 0.0 0.00 2.39 0.48 92 1007.6
20260506180825 17 153 0.0 0.0 0.00 2.39 0.48 92 1007.6
20260506180426 17 153 0.0 0.0 0.00 2.39 0.48 91 1007.4
20260506180343 17 153 0.0 0.0 0.00 2.39 0.48 91 1007.4
20260506175904 17 153 0.0 0.0 0.00 2.39 0.48 91 1007.4
20260506175328 17 153 0.0 0.0 0.00 2.39 0.48 91 1007.4
20260506174850 17 153 0.0 0.0 0.00 2.39 0.48 91 1007.5
20260506174414 17 153 0.0 0.0 0.00 2.39 0.48 91 1007.5
20260506173913 17 153 0.0 0.0 0.00 2.39 0.48 90 1007.5
20260506173431 17 153 0.0 0.0 0.00 2.39 0.48 90 1007.5
20260506172850 17 153 0.0 0.0 0.00 2.39 0.48 90 1007.5
20260506172338 17 153 0.0 0.0 0.00 2.39 0.48 90 1007.5
20260506171838 17 153 0.0 0.0 0.00 2.39 0.48 90 1007.4
20260506171328 17 153 0.0 0.0 0.00 2.39 0.48 89 1007.4
20260506170813 17 153 0.0 0.0 0.00 2.39 0.48 89 1007.4
20260506170318 17 153 0.0 0.0 0.00 2.39 0.48 89 1007.4
20260506165819 17 153 0.0 0.0 0.00 2.39 0.48 89 1007.4
20260506165420 17 153 0.0 0.0 0.00 2.39 0.48 89 1007.4
20260506164823 17 153 0.0 0.0 0.00 2.39 0.48 89 1007.5
20260506164323 17 153 0.0 0.0 0.00 2.39 0.48 89 1007.5
20260506163827 17 153 0.0 0.0 0.00 2.39 0.48 89 1007.5
20260506163425 17 153 0.0 6.4 0.00 2.39 0.48 89 1007.6
20260506162828 17 153 3.2 6.4 0.00 2.39 0.48 89 1007.6
20260506162333 17 154 1.6 9.7 0.00 2.39 0.48 89 1007.6
20260506161930 17 154 3.2 9.7 0.00 2.39 0.48 90 1007.5
20260506161327 17 155 3.2 11.3 0.00 2.39 0.48 90 1007.5
20260506160911 17 156 1.6 11.3 0.00 2.39 0.48 91 1007.5
20260506160332 17 132 0.0 0.0 0.00 2.49 0.48 91 1007.5
20260506155935 17 130 0.0 0.0 0.00 2.49 0.48 91 1007.5
20260506155322 16 128 0.0 0.0 0.00 2.49 0.48 91 1007.5
20260506154903 16 128 0.0 0.0 0.00 2.49 0.48 92 1007.3
20260506154820 16 128 0.0 0.0 0.00 2.49 0.48 92 1007.3
20260506154324 16 128 0.0 0.0 0.00 2.49 0.48 92 1007.3
20260506153852 16 128 0.0 0.0 0.00 2.49 0.48 93 1007.3
20260506153432 16 128 0.0 0.0 0.00 2.49 0.48 93 1007.5
20260506152910 16 128 0.0 0.0 0.00 2.49 0.48 93 1007.5
20260506152326 16 124 0.0 0.0 0.00 2.49 0.48 93 1007.5
20260506151825 16 124 0.0 0.0 0.00 2.49 0.48 93 1007.5
20260506151330 16 124 0.0 0.0 0.00 2.49 0.48 93 1007.5
20260506150405 16 123 1.6 8.0 0.20 2.59 0.48 93 1007.4
20260506145840 17 115 0.0 0.0 0.41 2.59 0.48 93 1007.4
20260506145339 17 91 0.0 0.0 0.51 2.59 0.48 93 1007.4
20260506144819 16 91 0.0 0.0 0.61 2.59 0.48 93 1007.5
20260506144419 16 91 0.0 9.7 0.79 2.59 0.48 93 1007.5
20260506143837 16 91 4.8 9.7 0.99 2.59 0.48 93 1007.5
20260506143319 16 88 0.0 9.7 1.30 2.59 0.48 93 1007.3
20260506142840 16 88 0.0 9.7 1.40 2.59 0.48 93 1007.3
20260506142419 16 90 4.8 11.3 1.50 2.59 0.48 93 1007.3
20260506141819 16 91 4.8 11.3 1.70 2.59 0.48 93 1007.7
20260506141326 16 99 4.8 11.3 1.80 2.59 0.48 93 1007.7
20260506140833 16 104 6.4 11.3 1.70 2.49 0.46 92 1007.7
20260506140333 16 98 6.4 11.3 1.60 2.39 0.43 92 1008.0
20260506135816 17 132 0.0 0.0 1.40 2.21 0.41 92 1008.0
20260506135317 17 132 0.0 0.0 1.30 2.11 0.38 91 1008.0
20260506134821 17 134 0.0 6.4 1.19 2.01 0.36 91 1008.0
20260506133832 17 130 0.0 8.0 0.79 1.60 0.28 90 1008.0
20260506133333 17 130 1.6 9.7 0.51 1.30 0.23 89 1008.1
20260506132817 17 131 4.8 11.3 0.41 1.19 0.20 89 1008.1
20260506132339 17 129 6.4 11.3 0.20 0.99 0.15 88 1008.1
20260506131822 17 127 0.0 12.9 0.10 0.89 0.15 87 1008.1
20260506131349 17 128 4.8 12.9 0.00 0.79 0.13 87 1008.1
20260506130857 17 108 3.2 11.3 0.00 0.79 0.13 87 1008.1
20260506130416 17 170 8.0 11.3 0.00 0.79 0.13 86 1008.3
20260506125818 17 128 4.8 12.9 0.00 0.79 0.13 87 1008.3
20260506125323 17 124 6.4 16.1 0.00 0.79 0.13 86 1008.3
20260506124849 17 110 6.4 16.1 0.00 0.79 0.13 86 1008.3
20260506124406 17 177 4.8 12.9 0.00 0.79 0.13 87 1008.3
20260506123845 17 148 6.4 12.9 0.00 0.79 0.13 86 1008.3
20260506123314 17 163 6.4 14.5 0.00 0.79 0.13 87 1008.3
20260506122938 17 131 4.8 19.3 0.00 0.79 0.13 86 1008.3
20260506122315 17 130 8.0 19.3 0.00 0.79 0.13 86 1008.3
20260506121330 17 101 6.4 12.9 0.00 0.79 0.13 88 1008.5
20260506120931 17 139 1.6 9.7 0.00 0.79 0.13 88 1008.5
20260506120352 17 132 4.8 9.7 0.00 0.99 0.13 88 1008.5
20260506115834 17 123 1.6 8.0 0.00 0.99 0.13 89 1008.5
20260506115314 17 163 0.0 0.0 0.10 0.99 0.13 89 1008.5
20260506114842 17 171 0.0 0.0 0.10 0.99 0.13 89 1008.7
20260506114407 17 171 0.0 0.0 0.10 0.99 0.13 89 1008.7
20260506113905 17 173 0.0 0.0 0.10 0.99 0.13 89 1008.7
20260506113346 16 173 0.0 0.0 0.10 0.99 0.13 89 1008.9
20260506112906 17 174 0.0 0.0 0.20 0.99 0.13 92 1008.9
20260506112330 17 178 0.0 0.0 0.20 0.99 0.13 90 1008.9
20260506111911 16 180 0.0 0.0 0.20 0.99 0.13 90 1008.9
20260506111330 16 180 0.0 0.0 0.20 0.99 0.13 90 1008.9
20260506110843 16 180 0.0 0.0 0.20 0.99 0.13 90 1008.9
20260506110347 16 180 0.0 0.0 0.20 1.19 0.13 90 1009.0
20260506105830 17 181 0.0 0.0 0.20 1.19 0.13 90 1009.0
20260506104903 16 181 0.0 0.0 0.10 1.09 0.10 89 1009.2
20260506104402 16 181 0.0 0.0 0.20 1.09 0.10 89 1009.2
20260506103841 17 183 0.0 0.0 0.20 1.09 0.10 88 1009.2
20260506103403 16 178 0.0 6.4 0.10 0.99 0.08 88 1009.2
20260506102845 16 179 0.0 6.4 0.10 0.99 0.08 88 1009.2
20260506102404 16 159 0.0 0.0 0.10 0.99 0.08 88 1009.2
20260506101833 16 159 0.0 9.7 0.10 0.99 0.08 87 1009.5
20260506101335 16 159 1.6 9.7 0.10 0.99 0.08 87 1009.5
20260506100837 16 168 1.6 9.7 0.10 0.99 0.08 87 1009.5
20260506100316 16 160 4.8 9.7 0.10 1.09 0.08 87 1009.3
20260506095823 17 157 4.8 9.7 0.20 1.09 0.08 87 1009.3
20260506095351 17 159 0.0 0.0 0.20 1.09 0.08 87 1009.3
20260506094852 17 157 0.0 0.0 0.20 1.09 0.08 86 1009.3
20260506094354 17 158 0.0 0.0 0.10 0.99 0.05 85 1009.3
20260506093914 17 167 0.0 0.0 0.10 0.99 0.05 86 1009.3
20260506093355 17 167 0.0 0.0 0.10 0.99 0.05 85 1009.2
20260506092836 17 167 0.0 0.0 0.10 0.99 0.05 85 1009.2
20260506092343 17 167 0.0 0.0 0.10 0.99 0.05 86 1009.2
20260506091845 17 169 0.0 0.0 0.10 0.99 0.05 86 1009.0
20260506091352 17 173 0.0 0.0 0.10 0.99 0.05 87 1009.0
20260506090832 17 178 0.0 6.4 0.10 0.99 0.05 87 1009.0
20260506090335 17 180 0.0 6.4 0.10 1.09 0.05 88 1008.8
20260506085856 17 136 0.0 0.0 0.00 0.99 0.05 89 1008.8
20260506085316 17 128 0.0 0.0 0.00 0.99 0.05 91 1008.8
20260506084820 17 94 0.0 0.0 0.00 0.99 0.05 92 1008.7
20260506084400 17 94 0.0 0.0 0.00 0.99 0.05 93 1008.7
20260506083821 17 90 0.0 0.0 0.00 0.99 0.05 94 1008.7
20260506083328 16 88 0.0 0.0 0.00 0.99 0.05 94 1008.5
20260506082829 17 88 0.0 0.0 0.00 0.99 0.05 95 1008.5
20260506082314 16 88 0.0 8.0 0.00 0.99 0.05 95 1008.5
20260506081818 16 88 0.0 9.7 0.00 0.99 0.05 95 1008.7
20260506081322 16 47 0.0 0.0 0.00 0.99 0.05 95 1008.7
20260506080846 16 47 0.0 0.0 0.00 0.99 0.05 95 1008.7
20260506080329 16 47 0.0 0.0 0.00 0.99 0.05 95 1008.9
20260506073341 16 47 0.0 0.0 0.00 0.99 0.05 95 1008.9
20260506072816 16 47 0.0 0.0 0.00 0.99 0.05 95 1008.9
20260506072340 15 47 0.0 0.0 0.00 0.99 0.05 95 1008.9
20260506071825 15 47 0.0 0.0 0.00 0.99 0.05 95 1008.8
20260506070819 15 47 0.0 0.0 0.00 0.99 0.05 95 1008.8
20260506070403 15 47 0.0 0.0 0.00 0.99 0.05 95 1008.9
20260506062317 15 42 0.0 0.0 0.00 0.99 0.05 95 1008.7
20260506061859 15 38 0.0 0.0 0.00 0.99 0.05 95 1008.7
20260506061318 15 33 0.0 0.0 0.00 0.99 0.05 95 1008.7
20260506060842 14 33 0.0 0.0 0.00 0.99 0.05 95 1008.7
20260506060406 14 26 0.0 0.0 0.10 0.99 0.05 95 1008.6
20260506050915 14 26 0.0 0.0 0.20 0.99 0.05 95 1009.0
20260506050316 14 26 0.0 0.0 0.10 0.89 0.03 95 1009.0
20260506044908 13 26 0.0 0.0 0.10 0.89 0.03 95 1009.0
20260506044330 13 25 0.0 0.0 0.10 0.89 0.03 95 1009.0
20260506043854 13 25 0.0 0.0 0.00 0.79 0.00 95 1009.0
20260506043334 13 25 0.0 0.0 0.00 0.79 0.00 95 1008.8
20260506042835 13 25 0.0 0.0 0.00 0.79 0.00 95 1008.8
20260506041830 13 25 0.0 0.0 0.00 0.79 0.00 95 1008.8
20260506041410 13 25 0.0 0.0 0.00 0.79 0.00 95 1008.8
20260506040812 13 24 0.0 0.0 0.00 0.79 0.00 95 1008.8
20260506040346 13 24 0.0 0.0 0.00 0.79 0.00 95 1008.9
20260506035825 13 24 0.0 0.0 0.00 0.79 0.00 95 1008.9
20260506035347 13 24 0.0 0.0 0.00 0.79 0.00 95 1008.9
20260506034810 13 24 0.0 0.0 0.00 0.79 0.00 95 1009.1
20260506034337 13 24 0.0 0.0 0.00 0.79 0.00 95 1009.1
20260506033816 13 24 0.0 0.0 0.00 0.79 0.00 95 1009.1
20260506033318 13 24 0.0 0.0 0.00 0.79 0.00 95 1009.0
20260506032859 13 24 0.0 0.0 0.00 0.79 0.00 95 1009.0
20260506032342 13 24 0.0 0.0 0.00 0.79 0.00 95 1009.0
20260506031901 13 24 0.0 0.0 0.00 0.79 0.00 95 1009.2
20260506031322 13 24 0.0 0.0 0.00 0.79 0.00 95 1009.2
20260506030826 13 24 0.0 0.0 0.00 0.79 0.00 95 1009.2
20260506030330 13 24 0.0 0.0 0.00 0.79 0.00 95 1009.5
20260506025424 13 24 0.0 0.0 0.00 0.79 0.00 95 1009.5
20260506024828 13 24 0.0 0.0 0.00 0.79 0.00 95 1009.5
20260506024351 13 24 0.0 0.0 0.00 0.79 0.00 94 1009.5
20260506023904 13 24 0.0 0.0 0.00 0.79 0.00 94 1009.5
20260506023406 13 24 0.0 0.0 0.00 0.79 0.00 94 1009.5
20260506022845 13 24 0.0 0.0 0.00 0.79 0.00 95 1009.5
20260506021913 13 24 0.0 0.0 0.00 0.79 0.00 94 1009.7
20260506021316 13 24 0.0 0.0 0.00 0.79 0.00 94 1009.7
20260506020916 13 24 0.0 0.0 0.00 0.79 0.00 94 1009.7
20260506020319 13 24 0.0 0.0 0.00 0.79 0.00 94 1009.8
20260506015819 13 24 0.0 0.0 0.00 0.79 0.00 94 1009.8
20260506015323 13 24 0.0 0.0 0.00 0.79 0.00 94 1009.8
20260506014816 13 24 0.0 0.0 0.00 0.79 0.00 94 1009.8
20260506014319 13 24 0.0 0.0 0.00 0.79 0.00 94 1009.8
20260506013920 13 24 0.0 0.0 0.00 0.79 0.00 94 1009.8
20260506013338 13 24 0.0 0.0 0.00 0.79 0.00 94 1010.0
20260506012823 13 24 0.0 0.0 0.00 0.79 0.00 94 1010.0
20260506012323 13 24 0.0 0.0 0.00 0.79 0.00 94 1010.0
20260506011823 13 24 0.0 0.0 0.00 0.79 0.00 94 1010.0
20260506011429 13 24 0.0 0.0 0.00 0.79 0.00 94 1010.0
20260506010830 13 24 0.0 0.0 0.00 0.79 0.00 94 1010.0
20260506010431 13 24 0.0 0.0 0.00 0.79 0.00 94 1010.0
20260506005359 13 24 0.0 8.0 0.00 0.79 0.00 94 1010.0
20260506004819 13 24 1.6 9.7 0.00 0.79 0.00 94 1010.1
20260506004344 13 24 1.6 8.0 0.00 0.79 0.00 94 1010.1
20260506003921 13 24 4.8 8.0 0.00 0.79 0.00 94 1010.1
20260506003319 13 24 0.0 0.0 0.00 0.79 0.00 94 1010.1
20260506002841 13 24 0.0 0.0 0.00 0.79 0.00 94 1010.1
20260506002330 13 24 0.0 0.0 0.00 0.79 0.00 94 1010.1
20260506001913 13 24 0.0 0.0 0.00 0.79 0.00 94 1010.1
20260506001332 13 24 0.0 8.0 0.00 0.79 0.00 94 1010.1
20260506000916 13 24 3.2 9.7 0.00 0.79 0.00 94 1010.1
20260506000342 13 24 1.6 9.7 0.00 0.79 0.00 94 1010.1
20260505235922 13 24 0.0 6.4 0.00 0.79 0.00 94 1010.1
20260505235343 13 24 0.0 8.0 0.00 0.79 0.00 94 1010.1
20260505234812 13 24 4.8 8.0 0.00 0.79 0.00 94 1010.3
20260505234436 13 24 1.6 8.0 0.00 0.79 0.00 94 1010.3
20260505233816 13 24 3.2 11.3 0.00 0.79 0.00 95 1010.3
20260505233319 13 24 3.2 11.3 0.00 0.79 0.00 95 1010.5
20260505232826 13 24 6.4 11.3 0.00 0.79 0.00 95 1010.5
20260505232312 13 24 4.8 8.0 0.00 0.79 0.00 95 1010.5
20260505231816 13 24 0.0 0.0 0.00 0.79 0.00 95 1010.6
20260505231320 13 24 0.0 0.0 0.00 0.79 0.00 95 1010.6
20260505230822 13 24 0.0 0.0 0.00 0.79 0.00 95 1010.6
20260505230326 13 24 0.0 0.0 0.00 0.79 0.00 95 1010.7
20260505225833 13 24 0.0 0.0 0.00 0.79 0.00 95 1010.7
20260505225318 13 24 0.0 0.0 0.00 0.79 0.00 95 1010.7
20260505224839 13 24 0.0 0.0 0.00 0.79 0.00 95 1011.0
20260505224318 13 24 0.0 0.0 0.00 0.79 0.00 95 1011.0
20260505223825 13 24 0.0 0.0 0.00 0.79 0.00 95 1011.0
20260505223329 13 24 0.0 0.0 0.00 0.79 0.00 95 1011.1
20260505222853 13 24 0.0 0.0 0.00 0.79 0.00 95 1011.1
20260505222333 13 24 0.0 0.0 0.00 0.79 0.00 95 1011.1
20260505221838 13 24 0.0 0.0 0.00 0.79 0.00 95 1011.1
20260505221321 13 24 0.0 0.0 0.00 0.79 0.00 95 1011.1
20260505220822 13 24 0.0 0.0 0.00 0.79 0.00 95 1011.1
20260505220348 13 24 0.0 0.0 0.00 0.79 0.15 95 1011.1
20260505215828 13 24 0.0 0.0 0.00 0.79 0.15 95 1011.1
20260505215429 13 24 0.0 0.0 0.00 0.79 0.15 95 1011.1